Ebbco — WCP3976 — position and weather

sailwx.info

Track history (hours):
 
Tides and Currents Weather Stations Pressure Air Temp Water Temp Dewpoint Dewpoint Depression Visibility Wind Speed Wind Dir Waves Ship Positions

Ebbco

Owner: EVERINGHAM BROS BAIT CO, La Mesa, CA. More information available from US FCC via Universal Licensing System.

Last reported at 2017-Nov-17 18:06 UTC. Time now 2017-Nov-19 18:18 UTC.
Position N 32°44' W 117°17'.

Length 34 m.

Type: Fishing. MMSI: 367378380.

Date/timePositionNaut miles runAvg speedWind from/ knotsBaromVisibWave heightAir tempDewpointWater temp
2017-Nov-17 18:06N 32°44' W 117°17'1 7.9
2017-Nov-17 17:55N 32°46' W 117°18'3 7.7
2017-Nov-17 17:30N 32°49' W 117°18'4 7.5
2017-Nov-17 17:00N 32°52' W 117°17'2 4.3
2017-Nov-17 16:30N 32°54' W 117°16'1 1.9
2017-Nov-17 16:00N 32°55' W 117°16'2 3.8
2017-Nov-17 15:30N 32°53' W 117°15'4 7.0
2017-Nov-17 15:00N 32°51' W 117°19'4 7.1
2017-Nov-17 14:25N 32°47' W 117°16'1 1.6
2017-Nov-17 13:57N 32°47' W 117°16'0 0.1
2017-Nov-17 13:27N 32°47' W 117°16'0 0.0
2017-Nov-17 12:57N 32°47' W 117°16'0 0.1
2017-Nov-17 12:12N 32°47' W 117°16'1 2.9
2017-Nov-17 11:55N 32°47' W 117°16'  
2017-Nov-14 14:09N 32°44' W 117°16'2 7.2
2017-Nov-14 13:56N 32°45' W 117°15'1 1.4
2017-Nov-14 13:17N 32°46' W 117°14'1 2.9
2017-Nov-14 12:54N 32°46' W 117°16'0 0.2
2017-Nov-14 12:27N 32°46' W 117°16'0 0.1
2017-Nov-14 11:57N 32°46' W 117°16'7 0.2
2017-Nov-12 17:04N 32°39' W 117°14'0 6.5
2017-Nov-12 16:59N 32°39' W 117°15'4 7.2
2017-Nov-12 16:27N 32°42' W 117°17'4 7.9
2017-Nov-12 15:58N 32°46' W 117°18'4 7.8
2017-Nov-12 15:30N 32°49' W 117°18'4 7.7
2017-Nov-12 15:00N 32°53' W 117°16'0 0.5
2017-Nov-12 14:29N 32°53' W 117°16'0 0.2
2017-Nov-12 13:59N 32°53' W 117°16'1 2.0
2017-Nov-12 13:30N 32°53' W 117°17'2 4.1
2017-Nov-12 13:00N 32°51' W 117°19'4 6.5
2017-Nov-12 12:24N 32°48' W 117°18'1 2.4
2017-Nov-12 11:55N 32°47' W 117°16'1 1.3
2017-Nov-12 11:25N 32°46' W 117°16'2 0.1
2017-Nov-11 17:59N 32°45' W 117°16'1 1.3
2017-Nov-11 17:17N 32°45' W 117°15'1 1.0
2017-Nov-11 15:50N 32°47' W 117°16'0 0.3
2017-Nov-11 15:14N 32°47' W 117°16'0 0.3
2017-Nov-11 14:47N 32°47' W 117°16'0 0.1
2017-Nov-11 13:41N 32°47' W 117°16'0 2.1
2017-Nov-11 13:28N 32°47' W 117°16'0 0.5
2017-Nov-11 12:35N 32°46' W 117°16'0 0.0
2017-Nov-11 12:23N 32°46' W 117°16'0 0.4
2017-Nov-11 11:54N 32°46' W 117°16'1 0.1
2017-Nov-10 21:23N 32°46' W 117°14'0 1.1
2017-Nov-10 20:58N 32°46' W 117°15'  
Track history (hours):
 
Tides and Currents Weather Stations Pressure Air Temp Water Temp Dewpoint Dewpoint Depression Visibility Wind Speed Wind Dir Waves Ship Positions

Ebbco

Owner: EVERINGHAM BROS BAIT CO, La Mesa, CA. More information available from US FCC via Universal Licensing System.

Last reported at 2017-Nov-17 18:06 UTC. Time now 2017-Nov-19 18:18 UTC.
Position N 32°44' W 117°17'.

Length 34 m.

Type: Fishing. MMSI: 367378380.

Date/timePositionNaut miles runAvg speedWind from/ knotsBaromVisibWave heightAir tempDewpointWater temp
2017-Nov-17 18:06N 32°44' W 117°17'1 7.9
2017-Nov-17 17:55N 32°46' W 117°18'3 7.7
2017-Nov-17 17:30N 32°49' W 117°18'4 7.5
2017-Nov-17 17:00N 32°52' W 117°17'2 4.3
2017-Nov-17 16:30N 32°54' W 117°16'1 1.9
2017-Nov-17 16:00N 32°55' W 117°16'2 3.8
2017-Nov-17 15:30N 32°53' W 117°15'4 7.0
2017-Nov-17 15:00N 32°51' W 117°19'4 7.1
2017-Nov-17 14:25N 32°47' W 117°16'1 1.6
2017-Nov-17 13:57N 32°47' W 117°16'0 0.1
2017-Nov-17 13:27N 32°47' W 117°16'0 0.0
2017-Nov-17 12:57N 32°47' W 117°16'0 0.1
2017-Nov-17 12:12N 32°47' W 117°16'1 2.9
2017-Nov-17 11:55N 32°47' W 117°16'  
2017-Nov-14 14:09N 32°44' W 117°16'2 7.2
2017-Nov-14 13:56N 32°45' W 117°15'1 1.4
2017-Nov-14 13:17N 32°46' W 117°14'1 2.9
2017-Nov-14 12:54N 32°46' W 117°16'0 0.2
2017-Nov-14 12:27N 32°46' W 117°16'0 0.1
2017-Nov-14 11:57N 32°46' W 117°16'7 0.2
2017-Nov-12 17:04N 32°39' W 117°14'0 6.5
2017-Nov-12 16:59N 32°39' W 117°15'4 7.2
2017-Nov-12 16:27N 32°42' W 117°17'4 7.9
2017-Nov-12 15:58N 32°46' W 117°18'4 7.8
2017-Nov-12 15:30N 32°49' W 117°18'4 7.7
2017-Nov-12 15:00N 32°53' W 117°16'0 0.5
2017-Nov-12 14:29N 32°53' W 117°16'0 0.2
2017-Nov-12 13:59N 32°53' W 117°16'1 2.0
2017-Nov-12 13:30N 32°53' W 117°17'2 4.1
2017-Nov-12 13:00N 32°51' W 117°19'4 6.5
2017-Nov-12 12:24N 32°48' W 117°18'1 2.4
2017-Nov-12 11:55N 32°47' W 117°16'1 1.3
2017-Nov-12 11:25N 32°46' W 117°16'2 0.1
2017-Nov-11 17:59N 32°45' W 117°16'1 1.3
2017-Nov-11 17:17N 32°45' W 117°15'1 1.0
2017-Nov-11 15:50N 32°47' W 117°16'0 0.3
2017-Nov-11 15:14N 32°47' W 117°16'0 0.3
2017-Nov-11 14:47N 32°47' W 117°16'0 0.1
2017-Nov-11 13:41N 32°47' W 117°16'0 2.1
2017-Nov-11 13:28N 32°47' W 117°16'0 0.5
2017-Nov-11 12:35N 32°46' W 117°16'0 0.0
2017-Nov-11 12:23N 32°46' W 117°16'0 0.4
2017-Nov-11 11:54N 32°46' W 117°16'1 0.1
2017-Nov-10 21:23N 32°46' W 117°14'0 1.1
2017-Nov-10 20:58N 32°46' W 117°15'  

Dump ship's entire track history